TimeCDT,TemperatureF,Dew PointF,Humidity,Sea Level PressureIn,VisibilityMPH,Wind Direction,Wind SpeedMPH,Gust SpeedMPH,PrecipitationIn,Events,Conditions,WindDirDegrees,DateUTC
12:35 AM,30.2,19.4,64,30.06,10.0,Calm,Calm,-,N/A,,Clear,0,2013-03-12 05:35:00
12:55 AM,30.2,21.2,69,30.06,10.0,Calm,Calm,-,N/A,,Clear,0,2013-03-12 05:55:00
1:15 AM,28.4,19.4,69,30.07,10.0,SSE,3.5,-,N/A,,Clear,160,2013-03-12 06:15:00
1:35 AM,30.2,19.4,64,30.07,10.0,Calm,Calm,-,N/A,,Clear,0,2013-03-12 06:35:00
1:55 AM,30.2,19.4,64,30.07,10.0,Calm,Calm,-,N/A,,Clear,0,2013-03-12 06:55:00
2:15 AM,30.2,19.4,64,30.08,10.0,Calm,Calm,-,N/A,,Clear,0,2013-03-12 07:15:00
2:35 AM,30.2,19.4,64,30.07,10.0,East,3.5,-,N/A,,Clear,90,2013-03-12 07:35:00
2:55 AM,32.0,21.2,64,30.07,10.0,NE,3.5,-,N/A,,Partly Cloudy,40,2013-03-12 07:55:00
3:15 AM,32.0,21.2,64,30.06,10.0,ENE,4.6,-,N/A,,Scattered Clouds,60,2013-03-12 08:15:00
3:35 AM,32.0,21.2,64,30.05,10.0,East,4.6,-,N/A,,Partly Cloudy,100,2013-03-12 08:35:00
3:55 AM,32.0,23.0,69,30.03,10.0,East,4.6,-,N/A,,Mostly Cloudy,90,2013-03-12 08:55:00
4:15 AM,30.2,23.0,75,30.07,10.0,SW,6.9,-,N/A,,Overcast,230,2013-03-12 09:15:00
4:35 AM,32.0,24.8,75,30.09,10.0,SW,3.5,-,N/A,,Overcast,230,2013-03-12 09:35:00
4:55 AM,33.8,24.8,70,30.10,10.0,Calm,Calm,-,N/A,,Overcast,0,2013-03-12 09:55:00
5:15 AM,33.8,24.8,70,30.12,10.0,WNW,3.5,-,N/A,,Overcast,290,2013-03-12 10:15:00
5:35 AM,33.8,24.8,70,30.14,10.0,NW,3.5,-,N/A,,Overcast,320,2013-03-12 10:35:00
5:55 AM,33.8,24.8,70,30.15,10.0,NW,3.5,-,N/A,,Overcast,320,2013-03-12 10:55:00
6:15 AM,35.6,24.8,65,30.15,10.0,Calm,Calm,-,N/A,,Overcast,0,2013-03-12 11:15:00
6:35 AM,35.6,24.8,65,30.15,10.0,Calm,Calm,-,N/A,,Overcast,0,2013-03-12 11:35:00
6:55 AM,35.6,26.6,70,30.16,10.0,Calm,Calm,-,N/A,,Overcast,0,2013-03-12 11:55:00
7:15 AM,35.6,26.6,70,30.16,10.0,SW,5.8,-,N/A,,Overcast,220,2013-03-12 12:15:00
7:35 AM,35.6,26.6,70,30.15,10.0,South,4.6,-,N/A,,Overcast,190,2013-03-12 12:35:00
7:55 AM,35.6,24.8,65,30.15,10.0,South,4.6,-,N/A,,Mostly Cloudy,190,2013-03-12 12:55:00
8:15 AM,35.6,24.8,65,30.17,10.0,SSW,5.8,-,N/A,,Mostly Cloudy,200,2013-03-12 13:15:00
8:35 AM,35.6,26.6,70,30.18,10.0,Calm,Calm,-,N/A,,Overcast,0,2013-03-12 13:35:00
8:55 AM,37.4,26.6,65,30.19,10.0,Calm,Calm,-,N/A,,Overcast,0,2013-03-12 13:55:00
9:15 AM,39.2,26.6,61,30.21,10.0,West,6.9,-,N/A,,Overcast,280,2013-03-12 14:15:00
9:35 AM,39.2,28.4,65,30.21,10.0,NW,8.1,-,N/A,,Overcast,310,2013-03-12 14:35:00
9:55 AM,41.0,28.4,61,30.22,10.0,NW,8.1,-,N/A,,Overcast,320,2013-03-12 14:55:00
10:15 AM,42.8,28.4,57,30.22,10.0,NW,11.5,-,N/A,,Overcast,320,2013-03-12 15:15:00
10:35 AM,42.8,28.4,57,30.23,10.0,NW,6.9,-,N/A,,Overcast,310,2013-03-12 15:35:00
10:55 AM,44.6,28.4,53,30.22,10.0,NW,4.6,-,N/A,,Overcast,310,2013-03-12 15:55:00
11:15 AM,44.6,30.2,57,30.22,10.0,NW,5.8,-,N/A,,Mostly Cloudy,320,2013-03-12 16:15:00
11:35 AM,46.4,30.2,53,30.23,10.0,NW,9.2,-,N/A,,Overcast,310,2013-03-12 16:35:00
11:55 AM,48.2,32.0,54,30.23,10.0,NW,8.1,-,N/A,,Scattered Clouds,310,2013-03-12 16:55:00
12:15 PM,50.0,30.2,47,30.24,10.0,NW,12.7,-,N/A,,Partly Cloudy,320,2013-03-12 17:15:00
12:35 PM,51.8,30.2,44,30.24,10.0,NW,8.1,17.3,N/A,,Mostly Cloudy,320,2013-03-12 17:35:00
12:55 PM,51.8,28.4,41,30.24,10.0,NW,12.7,-,N/A,,Partly Cloudy,320,2013-03-12 17:55:00
1:15 PM,53.6,26.6,35,30.24,10.0,NW,9.2,-,N/A,,Clear,320,2013-03-12 18:15:00
1:35 PM,53.6,21.2,28,30.23,10.0,NNW,10.4,-,N/A,,Clear,340,2013-03-12 18:35:00
1:55 PM,53.6,21.2,28,30.23,10.0,WNW,12.7,-,N/A,,Clear,300,2013-03-12 18:55:00
2:15 PM,53.6,24.8,33,30.22,10.0,North,13.8,18.4,N/A,,Clear,350,2013-03-12 19:15:00
2:35 PM,53.6,24.8,33,30.22,10.0,NNW,10.4,16.1,N/A,,Clear,330,2013-03-12 19:35:00
2:55 PM,55.4,24.8,31,30.21,10.0,NNW,12.7,16.1,N/A,,Clear,330,2013-03-12 19:55:00
3:15 PM,55.4,26.6,33,30.21,10.0,NNW,11.5,16.1,N/A,,Clear,330,2013-03-12 20:15:00
3:35 PM,55.4,24.8,31,30.21,10.0,NW,11.5,16.1,N/A,,Clear,320,2013-03-12 20:35:00
3:55 PM,55.4,26.6,33,30.21,10.0,NW,13.8,-,N/A,,Clear,310,2013-03-12 20:55:00
4:15 PM,55.4,26.6,33,30.21,10.0,NW,17.3,20.7,N/A,,Clear,310,2013-03-12 21:15:00
4:35 PM,55.4,26.6,33,30.21,10.0,NW,15.0,21.9,N/A,,Clear,310,2013-03-12 21:35:00
4:55 PM,55.4,26.6,33,30.21,10.0,NW,17.3,-,N/A,,Clear,320,2013-03-12 21:55:00
5:15 PM,53.6,26.6,35,30.21,10.0,WNW,11.5,-,N/A,,Clear,300,2013-03-12 22:15:00
5:35 PM,53.6,26.6,35,30.21,10.0,NNW,12.7,18.4,N/A,,Clear,330,2013-03-12 22:35:00
5:55 PM,53.6,26.6,35,30.20,10.0,NW,10.4,-,N/A,,Clear,310,2013-03-12 22:55:00
6:15 PM,53.6,26.6,35,30.21,10.0,NW,15.0,-,N/A,,Partly Cloudy,320,2013-03-12 23:15:00
6:35 PM,51.8,24.8,35,30.21,10.0,NNW,13.8,20.7,N/A,,Scattered Clouds,330,2013-03-12 23:35:00
6:55 PM,51.8,26.6,38,30.21,10.0,NNW,10.4,17.3,N/A,,Mostly Cloudy,340,2013-03-12 23:55:00
7:15 PM,48.2,26.6,43,30.22,10.0,NNW,10.4,-,N/A,,Scattered Clouds,330,2013-03-13 00:15:00
7:35 PM,46.4,26.6,46,30.23,10.0,NNW,9.2,-,N/A,,Clear,340,2013-03-13 00:35:00
7:55 PM,46.4,26.6,46,30.25,10.0,NNW,16.1,-,N/A,,Partly Cloudy,330,2013-03-13 00:55:00
8:15 PM,46.4,26.6,46,30.26,10.0,NNW,16.1,-,N/A,,Clear,340,2013-03-13 01:15:00
8:35 PM,46.4,24.8,43,30.27,10.0,NNW,19.6,24.2,N/A,,Clear,340,2013-03-13 01:35:00
8:55 PM,44.6,23.0,43,30.28,10.0,NNW,16.1,-,N/A,,Clear,340,2013-03-13 01:55:00
9:15 PM,42.8,23.0,46,30.29,10.0,NNW,12.7,19.6,N/A,,Clear,340,2013-03-13 02:15:00
9:35 PM,42.8,23.0,46,30.30,10.0,NNW,12.7,-,N/A,,Clear,340,2013-03-13 02:35:00
9:55 PM,42.8,21.2,42,30.30,10.0,North,12.7,-,N/A,,Clear,350,2013-03-13 02:55:00
10:15 PM,39.2,21.2,49,30.32,10.0,NNW,8.1,-,N/A,,Clear,340,2013-03-13 03:15:00
10:35 PM,39.2,21.2,49,30.32,10.0,NNW,9.2,-,N/A,,Clear,340,2013-03-13 03:35:00
10:55 PM,39.2,19.4,45,30.33,10.0,NNW,9.2,-,N/A,,Clear,340,2013-03-13 03:55:00
11:15 PM,37.4,19.4,48,30.33,10.0,NNW,10.4,-,N/A,,Clear,340,2013-03-13 04:15:00
11:35 PM,37.4,19.4,48,30.34,10.0,North,10.4,-,N/A,,Clear,360,2013-03-13 04:35:00
11:55 PM,35.6,19.4,52,30.34,10.0,North,8.1,-,N/A,,Clear,360,2013-03-13 04:55:00